Regional Weather Roundup
Issued by NWS

Home | Current Version | Previous Version | Text Only | Print | Product List | Glossary On
Versions: 1 2 3 4 5 6 7 8 9 10 11 12 13 14 15 16 17 18 19 20 21 22 23 24 25 26 27 28 29 30 31 32 33 34 35 36 37 38 39 40 41 42 43 44 45 46 47 48 49 50
000
ASUS43 KLMK 042010
RWRKY
KENTUCKY REGIONAL WEATHER ROUNDUP
NATIONAL WEATHER SERVICE LOUISVILLE KY
300 PM EST WED MAR 04 2015

NOTE "FAIR" INDICATES FEW OR NO CLOUDS BELOW 12,000 FEET
WITH NO SIGNIFICANT WEATHER AND/OR OBSTRUCTIONS TO VISIBILITY.

KYZ001>023-026-027-061>063-070>075-042100-
WESTERN AND SOUTH CENTRAL KENTUCKY

CITY           SKY/WX    TMP DP  RH WIND       PRES   REMARKS
PADUCAH        SLEET     28  24  85 N17       30.11R FOG     WCI  16
HENDERSON      CLOUDY    27  21  80 N9G22     30.11R WCI  17
OWENSBORO      FRZ RAIN  30  28  92 N12       30.04F FOG     WCI  20
HOPKINSVILLE   RAIN      36  32  87 N15G21    29.99R WCI  26
BOWLING GREEN  LGT RAIN  38  35  89 N10G18    29.96F FOG     WCI  31
GLASGOW        NOT AVBL
$$

KYZ024-025-028>034-038-045-046-053-042100-
NORTH CENTRAL KENTUCKY

CITY           SKY/WX    TMP DP  RH WIND       PRES   REMARKS
LOUISVILLE/SDF LGTSLEET  35  32  88 N10       30.01F FOG     WCI  27
LOUISVILLE/LOU LGT RAIN  34  32  92 N7        30.01F FOG     WCI  28
FORT KNOX      LGT RAIN  35  32  91 NW9       29.98F WCI  27
$$

KYZ035>037-039>044-047>052-055>060-089>105-042100-
NORTHEAST KENTUCKY

CITY           SKY/WX    TMP DP  RH WIND       PRES   REMARKS
LEXINGTON      LGT RAIN  36  34  92 N14       29.96F WCI  27
COVINGTON      LGT SNOW  34  31  88 NW6       30.00R FOG     WCI  29
FRANKFORT      RAIN      35  33  92 N12       29.97F FOG     WCI  27
$$

KYZ054-064>069-076>088-106>120-042100-
SOUTHEAST KENTUCKY

CITY           SKY/WX    TMP DP  RH WIND       PRES   REMARKS
JACKSON        RAIN      45  43  93 VRB5      29.90F FOG
LONDON         LGT RAIN  48  45  89 N9        29.89F FOG
SOMERSET       NOT AVBL
MIDDLESBORO    NOT AVBL
MONTICELLO     CLOUDY    46  46 100 NE13      29.92F FOG
$$




USA.gov is the U.S. government's official web portal to all federal, state and local government web resources and services.